Weather History for Logan, UT

Change the Weather History Date:

Friday, March 29, 2013

  Actual Average Record
Temperature  
Mean Temperature 48 °F -  
Max Temperature 62 °F 51 °F 74 °F (1986)
Min Temperature 33 °F 27 °F 1 °F (1964)
Degree Days  
Heating Degree Days 18    
Moisture  
Dew Point 34 °F    
Average Humidity 60    
Maximum Humidity 92    
Minimum Humidity 34    
Precipitation  
Precipitation 0.00 in - - ()
Sea Level Pressure  
Sea Level Pressure 30.11 in    
Wind  
Wind Speed 5 mph (SE)    
Max Wind Speed 28 mph    
Max Gust Speed 36 mph    
Visibility 10 miles    
Events Rain    
Averages and records for this station are not official NWS values.
T = Trace of Precipitation, MM = Missing Value Source: NWS Daily Summary

Daily Weather History Graph

Daily Weather History Graph

Search for Another Location

Airport:

Trip Planner

Search our weather history database for the weather conditions in past years. The results will help you decide how hot, cold, wet, or windy it might be!

Date:

Astronomy

Mar. 29, 2013 Rise Set
Actual Time 7:14 AM MDT 7:49 PM MDT
Civil Twilight 6:46 AM MDT 8:17 PM MDT
Nautical Twilight 6:13 AM MDT 8:51 PM MDT
Astronomical Twilight 5:39 AM MDT 9:25 PM MDT
Moon 10:57 PM MDT (3/29) 8:23 AM MDT (3/29)
Length of Visible Light 13h 31m
Length of Day
12h 35m
Waning Gibbous, 93% of the Moon is Illuminated
Mar 29
Waning Gibbous
Apr 2
Last Quarter
Apr 10
New
Apr 18
First Quarter
Apr 25
Full

Hourly Weather History & Observations

Time (MDT) Temp. Windchill Dew Point Humidity Pressure Visibility Wind Dir Wind Speed Gust Speed Precip Events Conditions
12:51 AM 46.9 °F - 33.1 °F 59% 30.03 in 10.0 mi SSE 3.5 mph - N/A   Mostly Cloudy
1:51 AM 42.1 °F - 35.1 °F 76% 30.04 in 10.0 mi Calm Calm - N/A   Overcast
2:51 AM 37.9 °F 33.5 °F 34.0 °F 86% 30.05 in 10.0 mi WNW 5.8 mph - N/A   Scattered Clouds
4:51 AM 37.0 °F 31.6 °F 32.0 °F 82% 30.06 in 10.0 mi South 6.9 mph - N/A   Clear
5:51 AM 33.1 °F 30.0 °F 30.9 °F 92% 30.10 in 10.0 mi NNE 3.5 mph - N/A   Clear
6:51 AM 35.1 °F 30.1 °F 30.9 °F 85% 30.11 in 10.0 mi SE 5.8 mph - N/A   Clear
7:51 AM 33.1 °F - 30.0 °F 89% 30.16 in 10.0 mi Calm Calm - N/A   Clear
8:51 AM 39.9 °F - 35.1 °F 83% 30.17 in 10.0 mi Calm Calm - N/A   Clear
9:51 AM 46.0 °F - 35.1 °F 66% 30.17 in 10.0 mi Calm Calm - N/A   Clear
10:51 AM 51.1 °F - 35.1 °F 54% 30.16 in 10.0 mi Calm Calm - N/A   Clear
11:51 AM 55.9 °F - 36.0 °F 47% 30.14 in 10.0 mi South 3.5 mph - N/A   Clear
12:51 PM 60.1 °F - 35.1 °F 39% 30.12 in 10.0 mi Calm Calm - N/A   Clear
1:51 PM 62.1 °F - 33.1 °F 34% 30.11 in 10.0 mi SSW 3.5 mph - N/A   Scattered Clouds
2:51 PM 62.1 °F - 33.1 °F 34% 30.10 in 10.0 mi WNW 9.2 mph - N/A   Mostly Cloudy
3:12 PM 60.8 °F - 35.6 °F 39% 30.14 in 10.0 mi ENE 13.8 mph - N/A   Mostly Cloudy
3:51 PM 57.9 °F - 36.0 °F 44% 30.11 in 10.0 mi West 27.6 mph 35.7 mph N/A   Overcast
4:04 PM 57.2 °F - 37.4 °F 48% 30.15 in 10.0 mi SSW 9.2 mph 26.5 mph 0.00 in Rain Light Rain
5:51 PM 61.0 °F - 35.1 °F 38% 30.10 in 10.0 mi NE 11.5 mph - N/A   Mostly Cloudy
6:51 PM 62.1 °F - 34.0 °F 35% 30.09 in 10.0 mi ENE 5.8 mph - N/A   Overcast
7:51 PM 55.9 °F - 35.1 °F 45% 30.10 in 10.0 mi East 5.8 mph - N/A   Partly Cloudy
9:51 PM 45.0 °F 41.2 °F 37.0 °F 74% 30.14 in 10.0 mi NE 6.9 mph - N/A   Clear
11:51 PM 43.0 °F 41.3 °F 35.1 °F 74% 30.13 in 10.0 mi SW 3.5 mph - N/A   Clear